Date String (YYYY-MM-DD hh:mm:ss) UTC,Instrument flags,absolute air pressure of the measurement (hPa),sample flow rate (lpm),inlet stack bypass flow (lpm),air temperature of the measurement (°C),ambient temperature measured by the external sensor (°C),aerosol sample conditioner tube jacket temperature (°C),OPC LED temperature (°C),internal box temperature (°C),relative humidity of the measurement (%),span deviation,mass concentration of particles derived from Lorenz-Mie calculation of OPC scattering (μg/m³),mass concentration of particles derived from Lorenz-Mie calculation of OPC scattering (μg/m³),mass concentration of particles derived from Lorenz-Mie calculation of OPC scattering (μg/m³)
DateTimeUTC,F1_M11,P_M11,Q1_M11,Q2_M11,T1_M11,T2_M11,T3_M11,T4_M11,T5_M11,U1_M11,ZSPAN_M11,X0_M11,X2_M11,X1_M11
2023-10-07 11:00:00,SystemResetWarning,0838.2,5.00,000.00,025.3,023.7,000.0,033.8,026.9,19.9,0000.0,0009.21,0005.58,0005.19
2023-10-07 11:01:00,SystemResetWarning,0838.2,4.99,000.00,025.3,023.7,000.0,033.8,026.9,19.9,0000.0,0008.84,0005.64,0005.24
2023-10-07 11:02:00,SystemResetWarning,0838.2,5.00,000.00,025.3,023.7,000.0,033.8,026.9,19.9,0000.0,0009.34,0005.72,0005.28
2023-10-07 11:03:00,SystemResetWarning,0838.2,4.99,000.00,025.3,023.7,000.0,033.8,026.9,19.9,0000.0,0009.66,0005.76,0005.32
2023-10-07 11:04:00,SystemResetWarning,0838.3,5.00,000.00,025.3,023.8,000.0,033.8,027.0,20.0,0000.0,0009.75,0005.78,0005.34
2023-10-07 11:05:00,SystemResetWarning,0838.3,5.00,000.00,025.3,023.8,000.0,033.8,027.0,20.0,0000.0,0009.83,0005.83,0005.38
2023-10-07 11:06:00,SystemResetWarning,0838.3,5.00,000.00,025.3,023.8,000.0,033.8,027.0,20.0,0000.0,0009.81,0005.86,0005.42
2023-10-07 11:07:00,SystemResetWarning,0838.3,5.00,000.00,025.3,023.8,000.0,033.8,027.0,20.0,0000.0,0009.91,0005.90,0005.45
2023-10-07 11:08:00,SystemResetWarning,0838.3,5.00,000.00,025.3,023.8,000.0,033.8,027.0,20.0,0000.0,0010.02,0005.94,0005.49
2023-10-07 11:09:00,SystemResetWarning,0838.3,5.01,000.00,025.3,023.8,000.0,033.8,027.0,20.0,0000.0,0010.11,0005.99,0005.52
2023-10-07 11:10:00,SystemResetWarning,0838.3,4.99,000.00,025.3,023.8,000.0,033.7,027.0,20.0,0000.0,0010.13,0006.04,0005.56
2023-10-07 11:11:00,SystemResetWarning,0838.3,5.00,000.00,025.3,023.8,000.0,033.7,027.0,20.0,0000.0,0010.13,0006.09,0005.59
2023-10-07 11:12:00,SystemResetWarning,0838.3,5.00,000.00,025.3,023.8,000.0,033.7,027.0,20.0,-000.1,0010.14,0006.08,0005.59
2023-10-07 11:13:00,SystemResetWarning,0838.3,5.00,000.00,025.3,023.8,000.0,033.7,027.0,20.0,-000.0,0010.04,0006.10,0005.62
2023-10-07 11:14:00,SystemResetWarning,0838.2,5.01,000.00,025.3,023.8,000.0,033.7,027.0,19.9,-000.3,0009.64,0006.10,0005.64
2023-10-07 11:15:00,SystemResetWarning,0838.3,5.00,000.00,025.3,023.8,000.0,033.7,027.0,19.9,0000.0,0009.48,0006.13,0005.67
2023-10-07 11:16:00,SystemResetWarning,0838.2,5.00,000.00,025.3,023.8,000.0,033.7,027.0,19.9,0000.0,0009.53,0006.17,0005.69
2023-10-07 11:17:00,SystemResetWarning,0838.2,5.00,000.00,025.3,023.9,000.0,033.7,027.0,19.9,0000.0,0010.03,0006.22,0005.73
2023-10-07 11:18:00,SystemResetWarning,0838.3,5.00,000.00,025.3,023.9,000.0,033.7,027.1,19.9,0000.0,0010.19,0006.24,0005.76
2023-10-07 11:19:00,SystemResetWarning,0838.3,5.00,000.00,025.3,023.9,000.0,033.7,027.1,19.9,0000.7,0010.09,0006.24,0005.79
2023-10-07 11:20:00,SystemResetWarning,0838.2,5.00,000.00,025.3,023.9,000.0,033.7,027.1,19.9,0001.2,0010.12,0006.25,0005.82
2023-10-07 11:21:00,SystemResetWarning,0838.2,5.00,000.00,025.3,023.9,000.0,033.7,027.1,19.8,0001.1,0010.13,0006.24,0005.82
2023-10-07 11:22:00,SystemResetWarning,0838.2,5.00,000.00,025.3,023.9,000.0,033.7,027.0,19.9,0001.8,0010.16,0006.25,0005.84
2023-10-07 11:23:00,SystemResetWarning,0838.2,5.00,000.00,025.3,023.9,000.0,033.7,027.0,19.9,0002.4,0010.67,0006.30,0005.87
2023-10-07 11:24:00,SystemResetWarning,0838.2,5.00,000.00,025.3,023.9,000.0,033.7,027.0,19.9,0002.6,0010.80,0006.32,0005.88
2023-10-07 11:25:00,SystemResetWarning,0838.2,5.00,000.00,025.3,023.8,000.0,033.7,027.0,20.0,0002.1,0011.24,0006.39,0005.90
2023-10-07 11:26:00,SystemResetWarning,0838.2,5.00,000.00,025.3,023.8,000.0,033.7,026.9,20.1,0000.0,0012.01,0006.40,0005.91
2023-10-07 11:27:00,SystemResetWarning,0838.2,5.00,000.00,025.3,023.8,000.0,033.7,026.9,20.2,0000.0,0012.39,0006.42,0005.92
2023-10-07 11:28:00,SystemResetWarning,0838.2,5.00,000.00,025.3,023.7,000.0,033.7,026.9,20.2,0000.0,0012.10,0006.41,0005.92
2023-10-07 11:29:00,SystemResetWarning,0838.2,5.00,000.00,025.3,023.7,000.0,033.7,026.9,20.2,0001.2,0011.68,0006.42,0005.92
2023-10-07 11:30:00,SystemResetWarning,0838.2,5.00,000.00,025.3,023.7,000.0,033.7,026.9,20.2,0000.3,0011.79,0006.46,0005.93
2023-10-07 11:31:00,SystemResetWarning,0838.2,5.00,000.00,025.3,023.7,000.0,033.7,027.0,20.3,0000.0,0012.02,0006.49,0005.93
2023-10-07 11:32:00,SystemResetWarning,0838.2,5.00,000.00,025.3,023.7,000.0,033.7,027.0,20.3,0000.0,0011.98,0006.51,0005.95
2023-10-07 11:33:00,SystemResetWarning,0838.2,5.00,000.00,025.3,023.7,000.0,033.7,027.0,20.4,0000.0,0012.50,0006.54,0005.97
2023-10-07 11:34:00,SystemResetWarning,0838.2,5.00,000.00,025.3,023.7,000.0,033.7,026.9,20.5,0000.0,0012.68,0006.54,0005.98
2023-10-07 11:35:00,SystemResetWarning,0838.2,5.00,000.00,025.2,023.7,000.0,033.7,026.9,20.6,0000.0,0012.66,0006.62,0006.02
2023-10-07 11:36:00,SystemResetWarning,0838.2,5.01,000.00,025.2,023.7,000.0,033.7,026.9,20.6,0000.0,0012.49,0006.60,0006.02
2023-10-07 11:37:00,SystemResetWarning,0838.2,5.00,000.00,025.2,023.7,000.0,033.7,026.8,20.7,0000.0,0012.11,0006.66,0006.05
2023-10-07 11:38:00,SystemResetWarning,0838.2,5.01,000.00,025.2,023.6,000.0,033.7,026.8,20.7,0000.0,0012.09,0006.67,0006.05
2023-10-07 11:39:00,SystemResetWarning,0838.2,5.01,000.00,025.2,023.6,000.0,033.7,026.9,20.7,0000.0,0013.02,0006.70,0006.07
2023-10-07 11:40:00,SystemResetWarning,0838.1,5.00,000.00,025.2,023.6,000.0,033.7,026.8,20.7,0000.0,0013.12,0006.70,0006.09
2023-10-07 11:41:00,SystemResetWarning,0838.2,5.00,000.00,025.2,023.6,000.0,033.7,026.9,20.9,0000.0,0013.20,0006.68,0006.10
2023-10-07 11:42:00,SystemResetWarning,0838.1,5.00,000.00,025.2,023.6,000.0,033.7,026.8,21.1,0000.0,0013.05,0006.71,0006.11
2023-10-07 11:43:00,SystemResetWarning,0838.2,5.00,000.00,025.2,023.6,000.0,033.6,026.8,21.4,0000.0,0013.07,0006.71,0006.12
2023-10-07 11:44:00,SystemResetWarning,0838.2,5.00,000.00,025.2,023.6,000.0,033.6,026.8,21.1,0000.0,0012.61,0006.69,0006.12
2023-10-07 11:45:00,SystemResetWarning,0838.2,5.00,000.00,025.1,023.6,000.0,033.6,026.8,20.9,0000.0,0012.11,0006.68,0006.11
2023-10-07 11:46:00,SystemResetWarning,0838.2,5.00,000.00,025.1,023.6,000.0,033.6,026.8,20.8,0000.0,0011.84,0006.67,0006.10
2023-10-07 11:47:00,SystemResetWarning,0838.2,5.00,000.00,025.1,023.6,000.0,033.6,026.7,20.8,0000.0,0012.39,0006.68,0006.12
2023-10-07 11:48:00,SystemResetWarning,0838.1,5.00,000.00,025.1,023.6,000.0,033.6,026.8,20.7,0000.0,0012.54,0006.65,0006.12
2023-10-07 11:49:00,SystemResetWarning,0838.2,5.00,000.00,025.1,023.6,000.0,033.6,026.8,20.7,0000.0,0012.46,0006.65,0006.13
2023-10-07 11:50:00,SystemResetWarning,0838.2,5.01,000.00,025.1,023.6,000.0,033.6,026.8,20.7,0000.0,0012.24,0006.68,0006.13
2023-10-07 11:51:00,SystemResetWarning,0838.2,5.00,000.00,025.1,023.6,000.0,033.6,026.8,20.7,0000.0,0012.14,0006.72,0006.15
2023-10-07 11:52:00,SystemResetWarning,0838.2,5.00,000.00,025.1,023.6,000.0,033.6,026.8,20.7,0000.0,0012.99,0006.77,0006.16
2023-10-07 11:53:00,SystemResetWarning,0838.2,5.00,000.00,025.1,023.6,000.0,033.6,026.8,20.8,0000.0,0013.22,0006.73,0006.14
2023-10-07 11:54:00,SystemResetWarning,0838.2,5.00,000.00,025.1,023.5,000.0,033.6,026.8,20.8,0000.0,0013.48,0006.73,0006.15
2023-10-07 11:55:00,SystemResetWarning,0838.2,5.00,000.00,025.1,023.5,000.0,033.6,026.7,20.8,0000.0,0013.52,0006.73,0006.15
2023-10-07 11:56:00,SystemResetWarning,0838.2,5.00,000.00,025.1,023.5,000.0,033.5,026.7,20.7,0000.0,0013.66,0006.75,0006.16
2023-10-07 11:57:00,SystemResetWarning,0838.2,4.99,000.00,025.1,023.5,000.0,033.5,026.7,20.6,0000.0,0013.53,0006.73,0006.18
2023-10-07 11:58:00,SystemResetWarning,0838.2,5.00,000.00,025.1,023.5,000.0,033.5,026.7,20.6,0000.0,0013.22,0006.71,0006.17
2023-10-07 11:59:00,SystemResetWarning,0838.1,5.00,000.00,025.1,023.5,000.0,033.5,026.7,20.6,0000.0,0012.61,0006.71,0006.17
